[[{"header":{"parameterUnit":"m.s-1","parameterCategory":1,"la1":30.2991,"la2":30.254,"lo1":-89.0895,"lo2":-89.0444,"dy":0.0017,"dx":0.0017,"nx":28,"ny":28,"refTime":"2024-03-30T03:00:00:Z","depth":0,"parameterNumber":2,"parameterNumberName":"U-component_of_WINDS"},"data":[0,0,0,0,0,0,0,0,0,0,0,0,0,0,0,0,0,0,0,0,0,0,0,0,0,0,0,0,0,0,0,0,0,0,0,0,0,0,0,0,0,0,0,0,0,0,0,0,0,0,0,0,0,0,0,0,0,0,-0.629,-0.6291,0,-0.6407,-0.6408,-0.641,-0.6463,-0.6463,-0.6463,-0.6463,-0.6589,-0.6592,-0.6596,0,0,0,0,0,0,0,0,0,0,0,0,0,-0.612,-0.6123,-0.629,-0.6291,-0.6293,-0.6407,-0.6408,-0.641,-0.6463,-0.6463,-0.6463,-0.6463,-0.6588,-0.6592,-0.6596,0,0,0,0,0,0,0,0,0,0,0,0,0,-0.6211,-0.6124,-0.629,-0.6333,-0.6338,-0.6406,-0.6408,-0.641,-0.6463,-0.6463,-0.6463,-0.6463,-0.6586,-0.6591,-0.6596,-0.6632,0,0,-0.6612,-0.6615,0,0,0,0,0,0,0,0,-0.6206,-0.6217,-0.6325,-0.633,-0.6336,-0.642,-0.6395,-0.6485,-0.6463,-0.6416,-0.6463,-0.6463,-0.6533,-0.6543,-0.6565,-0.6638,-0.6644,-0.6613,-0.6616,-0.6618,-0.662,0,0,0,0,0,0,0,-0.6199,-0.6213,-0.6336,-0.6327,-0.6333,-0.6349,-0.6362,-0.6412,-0.6474,-0.642,-0.6424,-0.6437,-0.6536,-0.656,-0.6569,-0.6645,-0.6613,-0.6617,-0.662,-0.6622,-0.6757,-0.6757,0,0,0,0,0,0,-0.6185,-0.6207,-0.6333,-0.634,-0.6269,-0.6352,-0.6366,-0.6393,-0.6474,-0.6486,-0.6437,-0.6439,-0.6551,-0.6563,-0.6573,-0.6622,-0.6618,-0.6623,-0.6626,-0.6756,-0.6757,-0.6757,0,0,0,0,0,0,-0.6181,-0.6196,-0.6328,-0.6275,-0.6293,-0.6355,-0.6385,-0.6396,-0.642,-0.6487,-0.6499,-0.645,-0.6552,-0.6566,-0.6617,-0.6627,-0.6625,-0.663,-0.6756,-0.6756,-0.6757,-0.6718,0,0,0,0,0,0,-0.6176,-0.6194,-0.6206,-0.6274,-0.6295,-0.6368,-0.6386,-0.6398,-0.6428,-0.6432,-0.6502,-0.6513,-0.6553,-0.6609,-0.6623,-0.6634,-0.6634,-0.6755,-0.6756,-0.6757,-0.6719,-0.6718,-0.6716,0,0,0,0,0,-0.617,-0.6192,-0.6207,-0.6222,-0.6312,-0.6368,-0.638,-0.6423,-0.6428,-0.6443,-0.6486,-0.6511,-0.6624,-0.6614,-0.6629,-0.6643,-0.6755,-0.6756,-0.6757,-0.672,-0.6718,-0.6716,0,0,0,0,0,0,-0.6125,-0.6201,-0.6219,-0.6263,-0.6308,-0.6377,-0.6396,-0.642,-0.6466,-0.6468,-0.6522,-0.6537,-0.6584,-0.6619,-0.6607,-0.6683,-0.6692,-0.6696,-0.6658,-0.6657,-0.6656,-0.6647,-0.6638,0,0,0,0,0,-0.612,-0.6157,-0.6223,-0.6256,-0.6277,-0.6333,-0.6359,-0.6388,-0.6438,-0.6458,-0.6505,-0.6555,-0.6602,-0.6632,-0.6678,-0.6725,-0.6742,-0.6742,-0.674,-0.6739,-0.6742,-0.6771,-0.6772,-0.676,-0.676,-0.676,0,0,-0.6111,-0.6157,-0.6177,-0.6248,-0.6286,-0.6326,-0.6348,-0.6389,-0.642,-0.6465,-0.6516,-0.6553,-0.6612,-0.6661,-0.6685,-0.6692,-0.6749,-0.674,-0.6738,-0.6742,-0.6772,-0.6773,-0.6774,-0.6761,-0.6761,-0.6761,0,0,-0.6113,-0.6151,-0.6183,-0.6221,-0.6279,-0.6316,-0.6324,-0.6389,-0.6415,-0.6466,-0.6502,-0.6541,-0.662,-0.6661,-0.6692,-0.6712,-0.6738,-0.6726,-0.6719,-0.6747,-0.6748,-0.6749,-0.6757,-0.676,-0.6729,-0.6729,-0.6729,0,-0.6095,-0.6153,-0.6197,-0.6236,-0.6267,-0.6308,-0.6343,-0.6379,-0.645,-0.6471,-0.6477,-0.6578,-0.6621,-0.6681,-0.6686,-0.6709,-0.6722,-0.6718,-0.6744,-0.6745,-0.6747,-0.6756,-0.6759,-0.6727,-0.6728,-0.6728,-0.6728,0,-0.6128,-0.6169,-0.6188,-0.6253,-0.6287,-0.6323,-0.6375,-0.6404,-0.6431,-0.6469,-0.6522,-0.6575,-0.6634,-0.6651,-0.6678,-0.6716,-0.6718,-0.6733,-0.6743,-0.6746,-0.6755,-0.6758,-0.6725,-0.6725,-0.6726,-0.6726,0,0,-0.6105,-0.6195,-0.6201,-0.6232,-0.63,-0.6333,-0.6373,-0.6429,-0.6453,-0.6502,-0.6537,-0.6604,-0.6619,-0.6654,-0.6687,-0.6712,-0.6726,-0.6724,-0.6727,-0.6723,-0.6773,-0.6761,-0.6764,-0.6743,-0.6744,-0.6745,-0.6768,0,-0.6117,-0.6187,-0.6229,-0.6283,-0.6322,-0.6363,-0.6398,-0.6445,-0.6481,-0.6522,-0.6564,-0.661,-0.6625,-0.6647,-0.6673,-0.6718,-0.6737,-0.6718,-0.678,-0.6781,-0.6763,-0.6768,-0.6756,-0.6775,-0.6772,-0.6772,-0.6773,0,-0.6141,-0.6186,-0.6243,-0.6308,-0.6326,-0.6356,-0.6412,-0.6449,-0.6504,-0.653,-0.657,-0.6603,-0.6649,-0.6655,-0.6721,-0.6707,-0.6736,-0.6762,-0.6764,-0.6772,-0.6777,-0.6777,-0.6782,-0.6785,-0.6779,-0.6778,-0.6778,0,-0.6119,-0.6195,-0.6239,-0.6264,-0.634,-0.6361,-0.6394,-0.6449,-0.648,-0.653,-0.6552,-0.6607,-0.6637,-0.668,-0.6728,-0.6728,-0.679,-0.68,-0.6814,-0.6813,-0.6825,-0.6823,-0.6835,-0.6842,-0.6842,-0.6842,-0.6842,0,-0.6128,-0.6162,-0.623,-0.6257,-0.6297,-0.6347,-0.6386,-0.6423,-0.6471,-0.6509,-0.6549,-0.6584,-0.6645,-0.6688,-0.6727,-0.6776,-0.679,-0.6813,-0.6823,-0.6809,-0.6806,-0.6828,-0.6829,-0.6843,-0.6843,-0.6843,-0.6843,0,-0.611,-0.6157,-0.6208,-0.6276,-0.6294,-0.632,-0.638,-0.641,-0.6449,-0.6496,-0.651,-0.6572,-0.6625,-0.6677,-0.6749,-0.6775,-0.6824,-0.6837,-0.6805,-0.681,-0.6822,-0.682,-0.6848,-0.6855,-0.6857,-0.6857,-0.6857,0,-0.6113,-0.614,-0.621,-0.6237,-0.6268,-0.6311,-0.6343,-0.6394,-0.6426,-0.6492,-0.6514,-0.657,-0.6617,-0.6701,-0.6754,-0.6809,-0.6825,-0.6831,-0.6833,-0.6819,-0.6826,-0.6823,-0.6827,-0.6829,-0.6829,-0.6828,-0.6828,0,-0.6113,-0.6135,-0.6179,-0.6231,-0.6267,-0.6311,-0.6357,-0.6378,-0.6438,-0.6472,-0.6526,-0.6562,-0.6636,-0.6691,-0.6753,-0.6791,-0.6821,-0.6827,-0.6833,-0.682,-0.68,-0.6812,-0.6801,-0.6826,-0.6826,-0.6826,-0.6827,-0.6827,-0.6107,-0.6133,-0.6186,-0.6234,-0.6273,-0.6315,-0.6346,-0.6389,-0.6434,-0.6496,-0.6524,-0.6579,-0.6636,-0.6722,-0.6759,-0.6805,-0.6812,-0.6821,-0.6824,-0.6825,-0.6822,-0.6793,-0.6816,-0.6817,-0.6817,-0.6817,-0.6817,0,-0.611,-0.6146,-0.6189,-0.6251,-0.6289,-0.6312,-0.6364,-0.6395,-0.6442,-0.6492,-0.6537,-0.66,-0.6655,-0.6712,-0.6771,-0.6797,-0.6812,-0.681,-0.6809,-0.6818,-0.6812,-0.6801,-0.6797,-0.6797,-0.6797,-0.6797,-0.6797,-0.6797,-0.6116,-0.6161,-0.619,-0.6257,-0.6294,-0.6346,-0.6374,-0.6414,-0.6454,-0.6522,-0.6567,-0.6603,-0.6657,-0.672,-0.6773,-0.6788,-0.6809,-0.6803,-0.6823,-0.6817,-0.6818,-0.6819,-0.6809,-0.6807,-0.6807,-0.6826,-0.6826,-0.6826]},{"header":{"parameterUnit":"m.s-1","parameterCategory":1,"la1":30.2991,"la2":30.254,"lo1":-89.0895,"lo2":-89.0444,"dy":0.0017,"dx":0.0017,"nx":28,"ny":28,"refTime":"2024-03-30T03:00:00:Z","depth":0,"parameterNumber":3,"parameterNumberName":"V-component_of_WINDS"},"data":[0,0,0,0,0,0,0,0,0,0,0,0,0,0,0,0,0,0,0,0,0,0,0,0,0,0,0,0,0,0,0,0,0,0,0,0,0,0,0,0,0,0,0,0,0,0,0,0,0,0,0,0,0,0,0,0,0,0,1.8852,1.8853,0,1.8923,1.8924,1.8925,1.8916,1.8914,1.8913,1.8912,1.8984,1.8987,1.899,0,0,0,0,0,0,0,0,0,0,0,0,0,1.8709,1.8712,1.8852,1.8853,1.8854,1.8923,1.8924,1.8925,1.8916,1.8914,1.8913,1.8912,1.8983,1.8987,1.899,0,0,0,0,0,0,0,0,0,0,0,0,0,1.8775,1.8713,1.8852,1.8858,1.8859,1.8923,1.8924,1.8925,1.8916,1.8914,1.8913,1.8911,1.8982,1.8986,1.8991,1.9053,0,0,1.9004,1.9006,0,0,0,0,0,0,0,0,1.8771,1.878,1.8856,1.8857,1.8859,1.8909,1.89,1.8968,1.8916,1.8894,1.8912,1.891,1.896,1.8967,1.8984,1.9057,1.906,1.9005,1.9008,1.901,1.9011,0,0,0,0,0,0,0,1.8766,1.8777,1.888,1.8857,1.8859,1.8857,1.8864,1.8913,1.8936,1.8896,1.8896,1.8904,1.8961,1.8979,1.8985,1.9061,1.9005,1.9009,1.9012,1.9013,1.9189,1.9191,0,0,0,0,0,0,1.876,1.8773,1.8878,1.8882,1.881,1.8861,1.8869,1.8894,1.8936,1.894,1.8906,1.8903,1.8972,1.898,1.8988,1.9064,1.9009,1.9014,1.9016,1.9187,1.919,1.9192,0,0,0,0,0,0,1.8757,1.877,1.8875,1.8828,1.8841,1.8865,1.8894,1.8897,1.8915,1.8943,1.8947,1.892,1.8971,1.8981,1.9037,1.9067,1.9016,1.902,1.9185,1.9188,1.9191,1.9217,0,0,0,0,0,0,1.8753,1.8769,1.8793,1.8828,1.8843,1.8923,1.8895,1.8899,1.8923,1.8921,1.8958,1.8962,1.8971,1.9031,1.9042,1.9072,1.9023,1.9182,1.9186,1.919,1.9214,1.9221,1.9227,0,0,0,0,0,1.8748,1.8797,1.8794,1.8807,1.8874,1.8925,1.8934,1.8943,1.8925,1.895,1.8968,1.8961,1.9061,1.9036,1.9049,1.9081,1.9181,1.9185,1.9189,1.9211,1.922,1.9227,0,0,0,0,0,0,1.8764,1.8802,1.8799,1.8861,1.889,1.8924,1.8955,1.8952,1.8986,1.8983,1.8993,1.9001,1.9058,1.9075,1.9046,1.9144,1.9119,1.9126,1.9131,1.9139,1.9145,1.914,1.9027,0,0,0,0,0,1.8775,1.8814,1.8844,1.8896,1.8911,1.893,1.8953,1.8958,1.8988,1.9,1.9022,1.9052,1.909,1.9115,1.9152,1.9216,1.9224,1.9244,1.9251,1.9256,1.9262,1.9298,1.9308,1.9206,1.9206,1.9206,0,0,1.8798,1.8823,1.8847,1.89,1.8923,1.8963,1.8941,1.8984,1.9013,1.9007,1.9061,1.9078,1.9112,1.9173,1.92,1.9188,1.9292,1.9261,1.9265,1.9269,1.9304,1.9313,1.9322,1.9209,1.9209,1.9208,0,0,1.886,1.8883,1.8929,1.8952,1.8988,1.9,1.9011,1.9046,1.9057,1.9111,1.9108,1.9143,1.9209,1.9233,1.9254,1.9326,1.9321,1.9338,1.9371,1.9406,1.9414,1.9421,1.9448,1.9457,1.9344,1.9344,1.9344,0,1.8884,1.8944,1.8952,1.8996,1.902,1.9016,1.9063,1.9085,1.9131,1.9147,1.9133,1.9216,1.9239,1.9305,1.9323,1.934,1.9353,1.9334,1.9412,1.942,1.9427,1.9452,1.9462,1.9346,1.9345,1.9345,1.9345,0,1.8972,1.9013,1.9046,1.9091,1.9118,1.9163,1.9179,1.9205,1.9208,1.9222,1.9278,1.9305,1.9347,1.9363,1.9365,1.943,1.9422,1.941,1.9385,1.9438,1.9462,1.9472,1.9348,1.9348,1.9347,1.9347,0,0,1.9046,1.9095,1.9107,1.9128,1.9166,1.9199,1.9244,1.9286,1.9309,1.934,1.9378,1.9434,1.9424,1.9448,1.9453,1.9483,1.954,1.9468,1.9469,1.9481,1.9614,1.9623,1.9634,1.9536,1.9538,1.954,1.9611,0,1.9113,1.9193,1.9202,1.9273,1.9312,1.9309,1.9348,1.9376,1.939,1.9426,1.9441,1.9481,1.9464,1.9478,1.9508,1.9526,1.9567,1.9521,1.9573,1.9575,1.9565,1.9647,1.9657,1.9723,1.9621,1.9622,1.9623,0,1.9201,1.9236,1.9311,1.9345,1.9361,1.9396,1.9436,1.9469,1.9501,1.951,1.9537,1.9538,1.9585,1.9557,1.9622,1.9591,1.9613,1.9625,1.9628,1.9634,1.9603,1.9656,1.9744,1.9754,1.9638,1.9637,1.9636,0,1.925,1.9314,1.9368,1.9385,1.9426,1.9451,1.9469,1.9499,1.9524,1.9558,1.9575,1.9614,1.9635,1.9666,1.9678,1.9657,1.9742,1.9716,1.9751,1.9751,1.977,1.9769,1.9864,1.9782,1.9782,1.9782,1.9782,0,1.9323,1.937,1.939,1.9423,1.9475,1.9485,1.9536,1.9553,1.958,1.9617,1.9616,1.965,1.9663,1.97,1.971,1.9762,1.9772,1.978,1.9783,1.9781,1.978,1.9796,1.9792,1.9785,1.9784,1.9784,1.9783,0,1.9387,1.9402,1.946,1.9494,1.9503,1.954,1.9569,1.9601,1.9615,1.9661,1.9673,1.9695,1.9738,1.9753,1.9804,1.9811,1.9873,1.987,1.9862,1.9863,1.9898,1.9895,2.0007,2.0023,1.993,1.9931,1.9931,0,1.9433,1.9469,1.9506,1.9531,1.955,1.9589,1.9614,1.9626,1.9652,1.9691,1.9719,1.9761,1.9796,1.9865,1.9886,1.9926,1.9925,1.9962,1.9931,1.9929,1.9927,1.9925,1.9929,1.9968,1.9969,1.997,1.997,0,1.9515,1.9521,1.9557,1.9597,1.9627,1.9659,1.9689,1.9709,1.9725,1.9755,1.9799,1.9826,1.9879,1.9922,1.9963,1.9982,1.9979,1.998,1.999,1.999,1.9984,1.9988,1.9879,1.9977,1.9976,1.9976,1.9976,1.9975,1.9572,1.9604,1.9635,1.9676,1.97,1.9729,1.9761,1.9779,1.9816,1.986,1.9864,1.9912,1.9944,1.9998,2.0019,2.0057,2.0047,2.0061,2.0065,2.0069,2.0073,1.9977,2.0064,2.0064,2.0064,2.0063,2.0063,0,1.9654,1.9675,1.9712,1.9755,1.9787,1.9781,1.9815,1.9843,1.9885,1.9914,1.9948,1.9999,2.0041,2.0065,2.0106,2.0132,2.0132,2.0143,2.0142,2.0146,2.0079,2.0066,2.0142,2.0142,2.0142,2.0142,2.0142,2.0142,1.9701,1.9755,1.9765,1.983,1.985,1.9897,1.9917,1.9944,1.9967,2.0024,2.0059,2.0074,2.0101,2.0145,2.0183,2.0189,2.0205,2.0217,2.0222,2.0159,2.0151,2.0143,2.0131,2.022,2.022,2.0287,2.0287,2.0288]}]]